Regional Weather Roundup
Issued by NWS Wakefield, VA

Home | Current Version | Previous Version | Text Only | Print | Product List | Glossary Off
Versions: 1 2 3 4 5 6 7 8 9 10 11 12 13 14 15 16 17 18 19 20 21 22 23 24 25 26 27 28 29 30 31 32 33 34 35 36 37 38 39 40 41 42 43 44 45 46 47 48 49 50

000
ASUS41 KAKQ 280915
RWRAKQ

REGIONAL WEATHER ROUNDUP
NATIONAL WEATHER SERVICE WAKEFIELD VA
500 AM EDT SUN AUG 28 2016

Note: "fair" indicates few or no clouds below 12,000 feet with no
significant weather and/or obstructions to visibility. * = Denotes
station may not report precipitation (e.g., rain,snow,etc.),
thunder or fog.

VAZ042-051-052>054-056-281000-
NORTHERN VIRGINIA

CITY           SKY/WX    TMP DP  RH WIND       PRES   REMARKS
WASH NATIONAL  PTCLDY    75  71  87 NE3       30.21R
DULLES         PTCLDY    67  63  87 CALM      30.23R
FORT BELVOIR   PTCLDY    68  66  95 NW2       30.21R
QUANTICO       MOCLDY    72  69  90 NW7       30.21
FREDERICKSBRG* PTCLDY    68  68 100 CALM      30.19S
STAFFORD*      PTCLDY    65  64  97 NW3       30.25R FOG
WARRENTON      FOG       63  59  86 CALM      30.22R VSB 1/4
CULPEPER*      CLEAR     68  68 100 CALM      30.23R
MANASSAS*      CLEAR     66  66 100 NW3       30.22R
LEESBURG*      CLEAR     68  68 100 CALM      30.24R
WINCHESTER     CLEAR     66  64  94 CALM      30.22R
FRONT ROYAL*   FAIR      66  66 100 CALM      30.21S
LURAY*         PTSUNNY  N/A N/A N/A CALM      30.23S
$$

VAZ048-049-060>072-079>083-281000-
CENTRAL AND SOUTH CENTRAL VIRGINIA

CITY           SKY/WX    TMP DP  RH WIND       PRES   REMARKS
RICHMOND       CLEAR     68  66  93 N6        30.18R
CHESTERFIELD*  FAIR      66  52  59 NW5       30.20R
PETERSBURG*    CLOUDY   N/A N/A N/A CALM      30.18S
HANOVER        CLEAR     66  63  90 CALM      30.20S
TAPPAHANNOCK*  MOCLDY    70  70 100 CALM      30.19R FOG
QUINTON*       FAIR      66  66  99 CALM      30.17S
CHARLOTTSVILLE CLEAR     68  66  93 CALM      30.23R
GORDONSVILLE*  FAIR      64  64 100 CALM      30.21S FOG
ORANGE*          N/A     66  66 100 CALM      30.24R
LOUISA*          N/A     66  66 100 CALM      30.21R FOG
BUMPASS*       FAIR      65  65 100 CALM      30.21R
FARMVILLE*     CLEAR    N/A N/A N/A CALM      30.19S
CREWE*         FAIR      64  64 100 CALM      30.20R
FORT PICKETT*  NOT AVBL
CHASE CITY*    FAIR      67  65  94 N3        30.19R
CLARKSVILLE*   FAIR      70  70 100 CALM      30.18S
SOUTH HILL*    PTCLDY    65  65  99 CALM      30.23S
LAWRENCEVILLE* CLOUDY    69  69  98 CALM      30.17F
EMPORIA*       PTCLDY    66  64  94 CALM      30.18S
$$

VAZ088>098-281000-
SOUTHEAST VIRGINIA

CITY           SKY/WX    TMP DP  RH WIND       PRES   REMARKS
NORFOLK        MOCLDY    77  74  90 E9        30.14R
VIRGINIA BEACH MOCLDY    82  73  74 E7        30.13R
NORFOLK NAVAL  CLOUDY    79  73  82 E9        30.15R
WEST POINT*    CLEAR     66  65  97 CALM      30.18S
SALUDA*        PTSUNNY   77  74  88 E6        30.16S
NEWPORT NEWS   PTCLDY    74  72  93 E5        30.15R
LANGLEY AFB    PTCLDY    77  73  89 E10       30.14R
FORT EUSTIS    PTCLDY    73  71  95 CALM      30.13R
WILLIAMSBURG*  PTCLDY    73  73 100 CALM      30.16S
HR EXEC AP*    PTSUNNY   75  72  88 E6        30.16S
FRANKLIN*      CLEAR     66  65  97 CALM      30.15F
US460-WAKEFLD  PTCLDY    68  66  93 CALM      30.15S FOG
$$

VAZ020-022-025-037-045-281000-
WEST CENTRAL AND SOUTHWEST VIRGINIA

CITY           SKY/WX    TMP DP  RH WIND       PRES   REMARKS
STAUNTON*      CLEAR     65  65  99 CALM      30.26S FOG
WAYNESBORO*    FAIR      65  63  91 CALM      30.25S
HOT SPRINGS VA MOCLDY    66  66 100 SE6       30.34S
LYNCHBURG      CLEAR     70  66  87 CALM      30.23S
DANVILLE       PTCLDY    70  67  90 CALM      30.18S
SOUTH BOSTON*  FAIR      67  66  94 NE3       30.18S
MARTINSVILLE     N/A     69  68  97 CALM      30.22S FOG
ROANOKE        CLEAR     74  66  76 CALM      30.24S
BLACKSBURG     CLEAR     67  65  94 CALM      30.29S
DUBLIN*        FOG       67  67 100 NW3       30.28R VSB 1/2
MARION*        CLOUDY    69  68  95 CALM      30.30S
HILLSVILLE*    CLOUDY    67  67 100 E5        30.28S
RICHLANDS*     FAIR      73  69  86 SE8       30.26R
WISE*          CLOUDY    73  61  64 CALM      30.27R
ABINGDON*      CLOUDY    76  70  81 E9        30.22S
$$

MDZ021>025-VAZ099-100-281000-
SOUTHERN MARYLAND AND THE DELMARVA PENINSULA

CITY           SKY/WX    TMP DP  RH WIND       PRES   REMARKS
PATUXENT RIVER PTCLDY    75  71  87 E7        30.18R
BAY BRIDGE APT CLEAR     72  70  94 E3        30.20R
LEONARDTOWN    PTCLDY    72  70  94 CALM      30.20R
DOVER          CLEAR     72  72 100 E6        30.19R
GEORGETOWN     NOT AVBL
EASTON         CLEAR     71  71 100 CALM      30.23S
CAMBRIDGE      CLOUDY    66  64  94 CALM      30.18S VSB 1
SALISBURY      CLEAR     69  68  96 CALM      30.18R
OCEAN CITY     CLEAR     75  71  87 E3        30.18R
WALLOPS ISLAND CLEAR     76  65  68 E9        30.17R
ACCOMACK*      CLEAR     73  70  90 E5        30.16R
$$

NCZ012>017-030>032-281000-
NORTH CENTRAL AND EASTERN NORTH CAROLINA

CITY           SKY/WX    TMP DP  RH WIND       PRES   REMARKS
ROANOKE RAPIDS FAIR      66  66 100 CALM      30.16S FOG
RALEIGH        PTCLDY    72  70  93 NE7       30.16S
ELIZABETH CITY MOCLDY    78  75  90 NE10      30.13R
AHOSKIE*       MOCLDY    70  69  98 CALM      30.15S
EDENTON*       CLEAR    N/A N/A N/A N6        30.13S HAZE
CURRITUCK*       N/A     80  77  91 NE8       30.13R
KILL DEVIL HLS PTCLDY    79  79 100 NE3       30.10S
MANTEO         MOCLDY    79  78  99 E6        30.11S
CAPE HATTERAS  CLOUDY    79  73  82 E3        30.09S
TARBORO*       FOG       72  71  99 CALM      30.16R VSB 1/2
GOLDSBORO      MOCLDY    75  75 100 N5        30.13R
WASHINGTON     FOG       73  72  98 N3        30.13S VSB 1/2
GREENVILLE     CLOUDY    73  73 100 N5        30.15S
NEW BERN       CLEAR     76  74  93 N7        30.12S
WILMINGTON     PTCLDY    76  74  93 N6        30.09S
$$

VAZ048-281000-
ELSEWHERE

CITY           SKY/WX    TMP DP  RH WIND       PRES   REMARKS
HARRISBURG PA  CLEAR     70  69  97 NE3       30.22R
BALTIMORE      PTCLDY    70  67  90 CALM      30.21R
ANNAPOLIS      PTCLDY    77  73  87 SE9       30.20R
ANDREWS AFB    CLEAR     68  68 100 NW2       30.21R FOG
PHILADELPHIA   PTCLDY    71  68  90 CALM      30.23R
HENDERSON NC   CLEAR     64  64  97 CALM      30.18S FOG
GREENSBORO     CLEAR     73  71  93 NE7       30.17R
ROCKY MOUNT    MOCLDY    70  70 100 N5        30.15S
$$

VAZ100-281000-
MARINE

STATION/POSITION TIME  TEMP    WIND        PRES    WAVE   SWELL
                       AIR SEA DIR/SP/G            HT/PER HT/PER
                 (UTC) (F)     (DEG/KT/KT) (MB)    (FT/S) (FT/S)
BRANDYWINE LGT   0800   75     110/  8/ 10   N/A
CAPE MAY NJ      0800   73 73   80/  2/  4 1021.7F
LEWES DE         0800   74 75  120/  6/  8 1021.7F
OCEAN-CITY-INLET 0800   76 75  110/  5/  8 1021.8F
WACHAPREAGUE VA  0800   78 82   80/  9/ 12 1020.9F
THOMAS POINT MD  0900   75 82  120/  8/  9 1024.1R
GOOSES REEF MD   0900   77 83  120/ 10/ 12 1022.8R   1/ 2
COVE POINT MD    0800   75     140/ 12/ 13 1022.4S
SOLOMONS ISLAND  0800   77 85  100/ 11/ 12   N/A
PINEY POINT MD   0800          110/  9/ 10   N/A
POTOMAC MD       0900   79 83  100/ 12/ 14 1020.7R   1/ 3
CAMBRIDGE MD     0800   74 84   90/  6/  8 1021.1S
LEWISETTA VA     0800   79 84  110/ 13/ 14 1021.2R
RAPPAHANNOCK LGT 0800           70/  9/ 11 1021.4F
STINGRAY PT      0900   79 83   30/ 12/ 14 1021.6R   2/ 3
YORK RVR RNG VA  0800   79      80/ 11/ 13 1020.1F
YORKTOWN VA      0800   79 83   80/ 12/ 16 1020.4F
JAMESTOWN VA     0900   74 85  360/  2/  4   N/A     0
DOMINION TERM VA 0800   79      80/ 11/ 14 1020.6F
KIPTOPEKE VA     0800      80   80/  6/ 11   N/A
CHES BAY BRIDGE  0800   78 79   50/ 12/ 14 1020.1F
CAPE HENRY VA    0800   78      60/ 12/ 14   N/A
WILLOUBY STN VA  0800   78      60/ 13/ 15   N/A
CAPE HENRY BUOY  0812      80                N/A     4/ 5
1ST LANDING BUOY 0900   78 78   90/ 10/ 12 1020.3R   2/ 3
CAPE CHARLES BUO 0826      79                N/A     4/ 5
OFFSHORE WE BUOY 0821      80                N/A     4/ 5
64NM E OF VA BCH 0850   80 81   80/ 14/ 17 1019.0R   4/ 9   2/ 9
DUCK PIER NC     0800   80 79   50/ 12/ 15 1019.0F
44100 DUCK FRF   0835      80                N/A     4/ 5
44056 DUCK FRF   0811      79                N/A     4/ 5
OREGON INLET NC  0800   80 79   40/  5/  8 1019.1F
HATTERAS NC      0800   79 84   70/  2/  3 1018.7F
DIAMOND SHLS NC  0850   81 84   80/  6/  6 1018.6F   3/ 9   3/ 9
CAPE LOOKOUT NC  0900   81      70/  9/ 11 1018.5F
$$



USA.gov is the U.S. government's official web portal to all federal, state and local government web resources and services.